| time (UTC) | temp F | wind direction | speed knots | gust knots | rain 1hr in | rain 24hr in | rain mn in | humidity % | barometer mb |
| 20260506185048 | 51 | 0 | 0.0 | 0.0 | 0.00 | 0.13 | 0.09 | 90 | 1011.8 |
| 20260506184041 | 51 | 0 | 0.0 | 0.0 | 0.00 | 0.13 | 0.09 | 89 | 1011.7 |
| 20260506183051 | 51 | 0 | 0.0 | 0.0 | 0.00 | 0.13 | 0.09 | 89 | 1011.6 |
| 20260506182051 | 51 | 0 | 0.0 | 0.0 | 0.00 | 0.13 | 0.09 | 88 | 1011.5 |
| 20260506181046 | 51 | 0 | 0.0 | 0.0 | 0.00 | 0.13 | 0.09 | 88 | 1011.4 |
| 20260506180049 | 51 | 0 | 0.0 | 0.0 | 0.00 | 0.13 | 0.09 | 88 | 1011.3 |
| 20260506175051 | 52 | 0 | 0.0 | 0.0 | 0.00 | 0.13 | 0.09 | 88 | 1011.2 |
| 20260506174048 | 52 | 0 | 0.0 | 0.0 | 0.00 | 0.13 | 0.09 | 88 | 1011.0 |
| 20260506173047 | 52 | 0 | 0.0 | 0.0 | 0.00 | 0.13 | 0.09 | 88 | 1010.9 |
| 20260506172049 | 52 | 0 | 0.0 | 0.0 | 0.00 | 0.13 | 0.09 | 88 | 1010.9 |
| 20260506171048 | 52 | 0 | 0.0 | 0.0 | 0.00 | 0.13 | 0.09 | 87 | 1010.8 |
| 20260506170048 | 52 | 0 | 0.0 | 0.0 | 0.00 | 0.13 | 0.09 | 87 | 1010.8 |
| 20260506165045 | 53 | 0 | 0.0 | 0.0 | 0.00 | 0.13 | 0.09 | 86 | 1010.7 |
| 20260506164048 | 53 | 0 | 0.0 | 0.0 | 0.00 | 0.13 | 0.09 | 85 | 1010.7 |
| 20260506162046 | 53 | 0 | 0.0 | 0.0 | 0.00 | 0.13 | 0.09 | 85 | 1010.7 |
| 20260506161048 | 53 | 0 | 0.0 | 0.0 | 0.00 | 0.13 | 0.09 | 86 | 1010.7 |
| 20260506160047 | 53 | 0 | 0.0 | 0.0 | 0.00 | 0.13 | 0.09 | 86 | 1010.7 |
| 20260506155048 | 53 | 0 | 0.0 | 0.0 | 0.00 | 0.13 | 0.09 | 86 | 1010.7 |
| 20260506154052 | 53 | 0 | 0.0 | 0.0 | 0.00 | 0.13 | 0.09 | 86 | 1010.7 |
| 20260506153048 | 53 | 0 | 0.0 | 0.0 | 0.00 | 0.13 | 0.09 | 84 | 1010.7 |
| 20260506151050 | 53 | 0 | 0.0 | 0.0 | 0.00 | 0.13 | 0.09 | 83 | 1010.6 |
| 20260506150048 | 53 | 0 | 0.0 | 0.0 | 0.00 | 0.13 | 0.09 | 83 | 1010.6 |
| 20260506145050 | 54 | 0 | 0.0 | 0.0 | 0.00 | 0.13 | 0.09 | 83 | 1010.6 |
| 20260506144047 | 54 | 0 | 0.0 | 0.0 | 0.00 | 0.13 | 0.09 | 82 | 1010.4 |
| 20260506143045 | 54 | 0 | 0.0 | 0.0 | 0.00 | 0.13 | 0.09 | 82 | 1010.4 |
| 20260506142047 | 54 | 0 | 0.0 | 0.0 | 0.00 | 0.13 | 0.09 | 82 | 1010.4 |
| 20260506141047 | 54 | 0 | 0.0 | 0.0 | 0.00 | 0.13 | 0.09 | 83 | 1010.5 |
| 20260506135049 | 54 | 0 | 0.0 | 0.0 | 0.01 | 0.13 | 0.09 | 83 | 1010.4 |
| 20260506133047 | 53 | 0 | 0.0 | 0.0 | 0.01 | 0.13 | 0.09 | 86 | 1010.5 |
| 20260506132048 | 53 | 0 | 0.0 | 0.0 | 0.01 | 0.13 | 0.09 | 87 | 1010.5 |
| 20260506131047 | 52 | 0 | 0.0 | 0.0 | 0.01 | 0.13 | 0.09 | 89 | 1010.6 |
| 20260506125047 | 52 | 0 | 0.0 | 0.0 | 0.01 | 0.13 | 0.09 | 90 | 1010.4 |
| 20260506124045 | 52 | 0 | 0.0 | 0.0 | 0.00 | 0.12 | 0.09 | 89 | 1010.3 |
| 20260506123048 | 53 | 0 | 0.0 | 0.0 | 0.00 | 0.12 | 0.09 | 91 | 1010.2 |
| 20260506122048 | 52 | 0 | 0.0 | 0.0 | 0.00 | 0.12 | 0.09 | 93 | 1010.3 |
| 20260506121045 | 51 | 0 | 0.0 | 0.0 | 0.00 | 0.13 | 0.09 | 96 | 1010.4 |
| 20260506120046 | 50 | 0 | 0.0 | 0.0 | 0.00 | 0.13 | 0.09 | 97 | 1010.4 |
| 20260506115047 | 50 | 0 | 0.0 | 0.0 | 0.00 | 0.13 | 0.09 | 96 | 1010.4 |
| 20260506114022 | 50 | 0 | 0.0 | 0.0 | 0.00 | 0.13 | 0.09 | 95 | 1010.5 |
| 20260506113016 | 50 | 0 | 0.0 | 0.0 | 0.00 | 0.13 | 0.09 | 96 | 1010.5 |
| 20260506111021 | 49 | 0 | 0.0 | 0.0 | 0.00 | 0.13 | 0.09 | 98 | 1010.5 |
| 20260506110021 | 49 | 0 | 0.0 | 0.0 | 0.00 | 0.13 | 0.09 | 99 | 1010.5 |
| 20260506105022 | 48 | 0 | 0.0 | 0.0 | 0.00 | 0.13 | 0.09 | 10 | 1010.6 |
| 20260506103021 | 48 | 0 | 0.0 | 0.0 | 0.00 | 0.13 | 0.09 | 99 | 1010.4 |
| 20260506102023 | 48 | 0 | 0.0 | 0.0 | 0.00 | 0.13 | 0.09 | 99 | 1010.4 |
| 20260506101018 | 48 | 0 | 0.0 | 0.0 | 0.00 | 0.13 | 0.09 | 99 | 1010.3 |
| 20260506100021 | 48 | 0 | 0.0 | 0.0 | 0.00 | 0.13 | 0.09 | 99 | 1010.2 |
| 20260506095023 | 48 | 0 | 0.0 | 0.0 | 0.00 | 0.13 | 0.09 | 98 | 1010.2 |
| 20260506094030 | 48 | 0 | 0.0 | 0.0 | 0.00 | 0.13 | 0.09 | 98 | 1010.2 |
| 20260506093022 | 48 | 0 | 0.0 | 0.0 | 0.00 | 0.13 | 0.09 | 98 | 1010.2 |
| 20260506092022 | 47 | 0 | 0.0 | 0.0 | 0.00 | 0.13 | 0.09 | 98 | 1010.1 |
| 20260506091023 | 47 | 0 | 0.0 | 0.0 | 0.00 | 0.13 | 0.09 | 99 | 1010.0 |
| 20260506090023 | 47 | 0 | 0.0 | 0.0 | 0.00 | 0.13 | 0.09 | 99 | 1009.9 |
| 20260506085021 | 47 | 0 | 0.0 | 0.0 | 0.00 | 0.13 | 0.09 | 98 | 1009.9 |
| 20260506084022 | 47 | 0 | 0.0 | 0.0 | 0.00 | 0.13 | 0.09 | 98 | 1009.8 |
| 20260506083022 | 47 | 0 | 0.0 | 0.0 | 0.00 | 0.13 | 0.09 | 97 | 1009.8 |
| 20260506082023 | 47 | 0 | 0.0 | 0.0 | 0.00 | 0.13 | 0.09 | 95 | 1009.7 |
| 20260506081023 | 47 | 0 | 0.0 | 0.0 | 0.00 | 0.13 | 0.09 | 94 | 1009.7 |
| 20260506073024 | 47 | 0 | 0.0 | 0.0 | 0.00 | 0.13 | 0.09 | 93 | 1009.4 |
| 20260506072021 | 47 | 0 | 0.0 | 0.0 | 0.00 | 0.13 | 0.09 | 94 | 1009.3 |
| 20260506071023 | 47 | 0 | 0.0 | 0.0 | 0.00 | 0.13 | 0.09 | 94 | 1009.3 |
| 20260506062022 | 46 | 0 | 0.0 | 0.0 | 0.00 | 0.13 | 0.09 | 95 | 1009.1 |
| 20260506061022 | 46 | 0 | 0.0 | 0.0 | 0.00 | 0.13 | 0.09 | 95 | 1009.0 |
| 20260506051046 | 45 | 0 | 0.0 | 0.0 | 0.01 | 0.13 | 0.09 | 97 | 1009.1 |
| 20260506045022 | 45 | 0 | 0.0 | 0.0 | 0.01 | 0.13 | 0.09 | 97 | 1009.1 |
| 20260506044022 | 45 | 0 | 0.0 | 0.0 | 0.01 | 0.13 | 0.09 | 97 | 1009.1 |
| 20260506043022 | 45 | 0 | 0.0 | 0.0 | 0.00 | 0.13 | 0.08 | 97 | 1009.0 |
| 20260506042022 | 45 | 0 | 0.0 | 0.0 | 0.01 | 0.13 | 0.08 | 97 | 1009.0 |
| 20260506041022 | 45 | 0 | 0.0 | 0.0 | 0.01 | 0.13 | 0.08 | 98 | 1009.0 |
| 20260506040043 | 45 | 0 | 0.0 | 0.0 | 0.01 | 0.13 | 0.08 | 98 | 1009.0 |
| 20260506035038 | 45 | 0 | 0.0 | 0.0 | 0.01 | 0.13 | 0.08 | 98 | 1009.0 |
| 20260506034022 | 46 | 0 | 0.0 | 0.0 | 0.01 | 0.13 | 0.08 | 98 | 1009.0 |
| 20260506033042 | 46 | 0 | 0.0 | 0.0 | 0.01 | 0.13 | 0.08 | 98 | 1009.0 |
| 20260506032022 | 46 | 0 | 0.0 | 0.0 | 0.01 | 0.13 | 0.08 | 98 | 1008.9 |
| 20260506031021 | 46 | 0 | 0.0 | 0.0 | 0.00 | 0.12 | 0.07 | 98 | 1009.0 |
| 20260506030022 | 46 | 0 | 0.0 | 0.0 | 0.01 | 0.12 | 0.07 | 98 | 1009.0 |
| 20260506024022 | 46 | 0 | 0.0 | 0.0 | 0.01 | 0.12 | 0.07 | 98 | 1009.1 |
| 20260506023047 | 46 | 0 | 0.0 | 0.0 | 0.02 | 0.12 | 0.07 | 98 | 1009.1 |
| 20260506022021 | 46 | 0 | 0.0 | 0.0 | 0.02 | 0.12 | 0.07 | 98 | 1009.0 |
| 20260506015050 | 46 | 0 | 0.0 | 0.0 | 0.02 | 0.11 | 0.06 | 99 | 1009.1 |
| 20260506014023 | 47 | 0 | 0.0 | 0.0 | 0.02 | 0.11 | 0.06 | 99 | 1009.1 |
| 20260506013023 | 47 | 0 | 0.0 | 0.0 | 0.02 | 0.11 | 0.06 | 98 | 1009.1 |
| 20260506011046 | 47 | 0 | 0.0 | 0.0 | 0.02 | 0.10 | 0.06 | 98 | 1009.1 |
| 20260506010026 | 47 | 0 | 0.0 | 0.0 | 0.01 | 0.09 | 0.05 | 99 | 1009.2 |
| 20260506004042 | 47 | 0 | 0.0 | 0.0 | 0.01 | 0.09 | 0.04 | 99 | 1009.2 |
| 20260506003023 | 48 | 0 | 0.0 | 0.0 | 0.01 | 0.09 | 0.04 | 99 | 1009.2 |
| 20260506002043 | 48 | 0 | 0.0 | 0.0 | 0.01 | 0.09 | 0.04 | 98 | 1009.3 |
| 20260506001023 | 48 | 0 | 0.0 | 0.0 | 0.02 | 0.09 | 0.04 | 99 | 1009.4 |
| 20260506000023 | 48 | 0 | 0.0 | 0.0 | 0.02 | 0.09 | 0.04 | 99 | 1009.4 |
| 20260505235046 | 48 | 0 | 0.0 | 0.0 | 0.02 | 0.09 | 0.04 | 99 | 1009.4 |
| 20260505234047 | 48 | 0 | 0.0 | 0.0 | 0.02 | 0.09 | 0.04 | 10 | 1009.4 |
| 20260505233046 | 49 | 0 | 0.0 | 0.0 | 0.02 | 0.08 | 0.03 | 10 | 1009.4 |
| 20260505232048 | 49 | 0 | 0.0 | 0.0 | 0.02 | 0.08 | 0.03 | 10 | 1009.5 |
| 20260505225050 | 49 | 0 | 0.0 | 0.0 | 0.02 | 0.06 | 0.02 | 10 | 1009.7 |
| 20260505224046 | 49 | 0 | 0.0 | 0.0 | 0.02 | 0.06 | 0.02 | 10 | 1009.7 |
| 20260505221049 | 49 | 0 | 0.0 | 0.0 | 0.02 | 0.06 | 0.01 | 10 | 1009.7 |
| 20260505214052 | 49 | 0 | 0.0 | 0.0 | 0.02 | 0.04 | 0.04 | 99 | 1009.8 |
| 20260505212050 | 49 | 0 | 0.0 | 0.0 | 0.01 | 0.03 | 0.03 | 99 | 1009.9 |
| 20260505211050 | 49 | 0 | 0.0 | 0.0 | 0.01 | 0.03 | 0.03 | 99 | 1009.9 |
| 20260505210049 | 49 | 0 | 0.0 | 0.0 | 0.01 | 0.03 | 0.03 | 99 | 1009.9 |
| 20260505205047 | 49 | 0 | 0.0 | 0.0 | 0.01 | 0.03 | 0.03 | 99 | 1010.0 |
| 20260505204048 | 49 | 0 | 0.0 | 0.0 | 0.02 | 0.03 | 0.03 | 99 | 1009.9 |
| 20260505203046 | 49 | 0 | 0.0 | 0.0 | 0.01 | 0.02 | 0.02 | 99 | 1009.9 |
| 20260505202047 | 49 | 0 | 0.0 | 0.0 | 0.01 | 0.02 | 0.02 | 98 | 1009.9 |
| 20260505201053 | 50 | 0 | 0.0 | 0.0 | 0.01 | 0.02 | 0.02 | 98 | 1009.8 |
| 20260505195047 | 50 | 0 | 0.0 | 0.0 | 0.01 | 0.02 | 0.02 | 98 | 1009.6 |
| 20260505194049 | 50 | 0 | 0.0 | 0.0 | 0.01 | 0.02 | 0.02 | 99 | 1009.5 |
| 20260505192047 | 50 | 0 | 0.0 | 0.0 | 0.00 | 0.02 | 0.02 | 99 | 1009.3 |
| 20260505191049 | 50 | 0 | 0.0 | 0.0 | 0.00 | 0.02 | 0.02 | 98 | 1009.3 |
| 20260505190050 | 51 | 0 | 0.0 | 0.0 | 0.00 | 0.02 | 0.02 | 98 | 1009.2 |